,,PA_Meas_PMT16A,,PR_Meas_QMR101_102,,RH_Meas_QMH101,,SR_Meas_QMS101,,TA_Meas_QMH101,,GenWind,,GenWind,
time,status,PA,status,PR,status,RH,status,SR,status,TA,status,DirAvg,status,SpdAvg,
2016-11-15, 14:45:04,VALID,917.339,VALID,0,INVALID,115.129,VALID,167.716,VALID,20.2699,VALID,27,VALID,0,
2016-11-15, 14:46:04,VALID,917.333,VALID,0,INVALID,115.159,VALID,186.088,VALID,20.3074,VALID,23,VALID,0,
2016-11-15, 14:47:04,VALID,917.364,VALID,0,INVALID,115.197,VALID,203.601,VALID,20.3074,VALID,15,VALID,0,
2016-11-15, 14:48:04,VALID,917.378,VALID,0,INVALID,115.182,VALID,242.924,VALID,20.3464,VALID,2,VALID,0,
2016-11-15, 14:49:04,VALID,917.383,VALID,0,INVALID,115.228,VALID,254.85,VALID,20.3869,VALID,13,VALID,0,
2016-11-15, 14:50:04,VALID,917.39,VALID,0,INVALID,115.121,VALID,242.495,VALID,20.4829,VALID,42,VALID,0,
2016-11-15, 14:51:04,VALID,917.407,VALID,0,INVALID,115.068,VALID,259.041,VALID,20.5414,VALID,32,VALID,0,
2016-11-15, 14:52:04,VALID,917.4,VALID,0,INVALID,115.068,VALID,248.404,VALID,20.66,VALID,23,VALID,0,
2016-11-15, 14:53:04,VALID,917.412,VALID,0,INVALID,114.984,VALID,244.214,VALID,20.7365,VALID,2,VALID,0,
2016-11-15, 14:54:04,VALID,917.425,VALID,0,INVALID,115.129,VALID,256.784,VALID,20.7365,VALID,356,VALID,0,
2016-11-15, 14:55:04,VALID,917.43,VALID,0,INVALID,115.159,VALID,281.388,VALID,20.795,VALID,16,VALID,0,
2016-11-15, 14:56:04,VALID,917.449,VALID,0,INVALID,115.106,VALID,289.232,VALID,20.912,VALID,18,VALID,0,
2016-11-15, 14:57:04,VALID,917.459,VALID,0,INVALID,115.014,VALID,285.364,VALID,21.0291,VALID,360,VALID,0,
2016-11-15, 14:58:04,VALID,917.468,VALID,0,INVALID,115.106,VALID,267.851,VALID,21.0096,VALID,1,VALID,0,
2016-11-15, 14:59:04,VALID,917.479,VALID,0,INVALID,115.152,VALID,291.488,VALID,21.0876,VALID,345,VALID,0,
2016-11-15, 15:00:04,VALID,917.502,VALID,0,INVALID,115.701,VALID,297.29,VALID,20.891,VALID,353,VALID,0,
2016-11-15, 15:01:04,VALID,917.485,VALID,0,INVALID,115.815,VALID,302.125,VALID,20.9105,VALID,24,VALID,0,
2016-11-15, 15:02:04,VALID,917.503,VALID,0,INVALID,115.876,VALID,248.082,VALID,21.0096,VALID,19,VALID,1.07891,
2016-11-15, 15:03:04,VALID,917.515,VALID,0,INVALID,115.891,VALID,231.106,VALID,21.0275,VALID,29,VALID,0,
2016-11-15, 15:04:04,VALID,917.541,VALID,0,INVALID,116.288,VALID,219.287,VALID,20.9901,VALID,1,VALID,0.192188,
2016-11-15, 15:05:04,VALID,917.535,VALID,0,INVALID,116.707,VALID,212.841,VALID,20.873,VALID,336,VALID,0,
2016-11-15, 15:06:04,VALID,917.525,VALID,0,INVALID,116.875,VALID,191.353,VALID,20.7934,VALID,4,VALID,0,
2016-11-15, 15:07:04,VALID,917.546,VALID,0,INVALID,116.958,VALID,187.162,VALID,20.7528,VALID,30,VALID,0,
2016-11-15, 15:08:04,VALID,917.568,VALID,0,INVALID,116.775,VALID,196.617,VALID,20.8324,VALID,357,VALID,1.88555,
2016-11-15, 15:09:04,VALID,917.603,VALID,0,INVALID,117.248,VALID,206.287,VALID,20.717,VALID,358,VALID,1.37461,
2016-11-15, 15:10:04,VALID,917.593,VALID,0,INVALID,117.027,VALID,233.792,VALID,20.7934,VALID,16,VALID,1.37773,
2016-11-15, 15:11:04,VALID,917.617,VALID,0,INVALID,117.538,VALID,284.074,VALID,20.7349,VALID,1,VALID,1.85742,
2016-11-15, 15:12:04,VALID,917.617,VALID,0,INVALID,117.736,VALID,380.879,VALID,20.6975,VALID,39,VALID,1.43125,
2016-11-15, 15:13:04,VALID,917.62,VALID,0,INVALID,117.362,VALID,650.771,VALID,20.8129,VALID,15,VALID,1.26367,
2016-11-15, 15:14:04,VALID,917.641,VALID,0,INVALID,117.523,VALID,472.956,VALID,20.93,VALID,21,VALID,1.1625,
2016-11-15, 15:15:04,VALID,917.65,VALID,0,INVALID,117.698,VALID,448.782,VALID,21.0275,VALID,18,VALID,1.22734,
2016-11-15, 15:16:04,VALID,917.666,VALID,0,INVALID,117.507,VALID,267.421,VALID,21.2226,VALID,10,VALID,1.20117,
2016-11-15, 15:17:04,VALID,917.693,VALID,0,INVALID,117.576,VALID,231.321,VALID,21.3786,VALID,45,VALID,0.425,
2016-11-15, 15:18:04,VALID,917.696,VALID,0,INVALID,117.972,VALID,243.677,VALID,21.4762,VALID,355,VALID,0.982031,
2016-11-15, 15:19:04,VALID,917.71,VALID,0,INVALID,118.941,VALID,270.537,VALID,21.3981,VALID,356,VALID,0.148047,
2016-11-15, 15:20:04,VALID,917.701,VALID,0,INVALID,119.306,VALID,303.951,VALID,21.377,VALID,360,VALID,0.545313,
2016-11-15, 15:21:04,VALID,917.724,VALID,0,INVALID,119.832,VALID,308.678,VALID,21.416,VALID,344,VALID,0.00195313,
2016-11-15, 15:22:04,VALID,917.726,VALID,0,INVALID,120.61,VALID,287.835,VALID,21.338,VALID,278,VALID,0.178125,
2016-11-15, 15:23:04,VALID,917.751,VALID,0,INVALID,121.296,VALID,246.792,VALID,21.3006,VALID,332,VALID,0,
2016-11-15, 15:24:04,VALID,917.754,VALID,0,INVALID,121.601,VALID,214.023,VALID,21.377,VALID,307,VALID,0,
2016-11-15, 15:25:04,VALID,917.77,VALID,0,INVALID,122.074,VALID,227.023,VALID,21.4355,VALID,305,VALID,0,
2016-11-15, 15:26:04,VALID,917.758,VALID,0,INVALID,122.44,VALID,240.238,VALID,21.5526,VALID,7,VALID,0,
2016-11-15, 15:27:04,VALID,917.748,VALID,0,INVALID,122.928,VALID,236.8,VALID,21.5916,VALID,23,VALID,0,
2016-11-15, 15:28:04,VALID,917.8,VALID,0,INVALID,123.187,VALID,247.759,VALID,21.5932,VALID,7,VALID,0,
2016-11-15, 15:29:04,VALID,917.774,VALID,0,INVALID,123.179,VALID,231.106,VALID,21.6908,VALID,10,VALID,0,
2016-11-15, 15:30:04,VALID,917.82,VALID,0,INVALID,123.088,VALID,219.18,VALID,21.7298,VALID,25,VALID,1.69258,
2016-11-15, 15:31:04,VALID,917.808,VALID,0,INVALID,122.668,VALID,461.89,VALID,21.7298,VALID,340,VALID,0.0710938,
2016-11-15, 15:32:04,VALID,917.849,VALID,0,INVALID,122.6,VALID,550.743,VALID,21.8469,VALID,34,VALID,0,
2016-11-15, 15:33:04,VALID,917.861,VALID,0,INVALID,122.257,VALID,338.655,VALID,21.9444,VALID,23,VALID,0,
2016-11-15, 15:34:04,VALID,917.88,VALID,0,INVALID,122.18,VALID,252.702,VALID,22.081,VALID,355,VALID,0,
2016-11-15, 15:35:04,VALID,917.866,VALID,0,INVALID,120.092,VALID,273.545,VALID,21.9428,VALID,302,VALID,0,
2016-11-15, 15:36:04,VALID,917.862,VALID,0,INVALID,120.732,VALID,311.687,VALID,21.964,VALID,336,VALID,0,
2016-11-15, 15:37:04,VALID,917.885,VALID,0,INVALID,121.258,VALID,286.653,VALID,22.042,VALID,360,VALID,0,
2016-11-15, 15:38:04,VALID,917.872,VALID,0,INVALID,121.372,VALID,226.701,VALID,22.1786,VALID,2,VALID,0,
2016-11-15, 15:39:04,VALID,917.881,VALID,0,INVALID,120.282,VALID,202.312,VALID,22.2354,VALID,322,VALID,0,
2016-11-15, 15:40:04,VALID,917.882,VALID,0,INVALID,120.206,VALID,275.157,VALID,22.3737,VALID,11,VALID,0,
2016-11-15, 15:41:04,VALID,917.867,VALID,0,INVALID,119.207,VALID,423.748,VALID,22.4501,VALID,341,VALID,0,
2016-11-15, 15:42:04,VALID,917.898,VALID,0,VALID,104,VALID,323.935,VALID,22.4323,VALID,272,VALID,0,
2016-11-15, 15:43:04,VALID,917.911,VALID,0,VALID,100.568,VALID,302.662,VALID,22.3135,VALID,282,VALID,0,
2016-11-15, 15:44:04,VALID,917.919,VALID,0,INVALID,112.369,VALID,298.042,VALID,22.255,VALID,274,VALID,0,
2016-11-15, 15:45:04,VALID,917.914,VALID,0,VALID,97.8465,VALID,558.694,VALID,22.1964,VALID,279,VALID,0,
2016-11-15, 15:46:04,VALID,917.902,VALID,0,VALID,99.8286,VALID,463.501,VALID,22.2354,VALID,250,VALID,0,
2016-11-15, 15:47:04,VALID,917.895,VALID,0,VALID,101.483,VALID,610.91,VALID,22.5281,VALID,16,VALID,0,
2016-11-15, 15:48:04,VALID,917.931,VALID,0,VALID,99.417,VALID,324.902,VALID,22.7428,VALID,280,VALID,0,
2016-11-15, 15:49:04,VALID,917.939,VALID,0,INVALID,109.686,VALID,315.125,VALID,22.7996,VALID,283,VALID,0,
2016-11-15, 15:50:04,VALID,917.893,VALID,0,INVALID,111.21,VALID,552.14,VALID,22.8777,VALID,289,VALID,0,
2016-11-15, 15:51:04,VALID,917.943,VALID,0,INVALID,109.19,VALID,354.878,VALID,23.0924,VALID,352,VALID,0,
2016-11-15, 15:52:04,VALID,917.947,VALID,0,VALID,95.0488,VALID,318.026,VALID,23.229,VALID,249,VALID,0,
2016-11-15, 15:53:04,VALID,917.922,VALID,0,VALID,91.5267,VALID,271.074,VALID,23.0533,VALID,286,VALID,0,
2016-11-15, 15:54:04,VALID,917.938,VALID,0,VALID,92.4492,VALID,225.949,VALID,22.8972,VALID,280,VALID,0,
2016-11-15, 15:55:04,VALID,917.926,VALID,0,VALID,104,VALID,228.635,VALID,22.8369,VALID,30,VALID,0,
2016-11-15, 15:56:04,VALID,917.914,VALID,0,INVALID,109.091,VALID,306.637,VALID,22.8582,VALID,30,VALID,0,
2016-11-15, 15:57:04,VALID,917.899,VALID,0,INVALID,110.113,VALID,738.336,VALID,23.0143,VALID,30,VALID,0,
2016-11-15, 15:58:04,VALID,917.9,VALID,0,VALID,92.8837,VALID,498.957,VALID,23.2857,VALID,319,VALID,0,
2016-11-15, 15:59:04,VALID,917.885,VALID,0,VALID,89.0034,VALID,636.804,VALID,23.543,VALID,312,VALID,0,
2016-11-15, 16:00:04,VALID,917.867,VALID,0,VALID,87.1128,VALID,606.076,VALID,23.6602,VALID,270,VALID,0,
2016-11-15, 16:01:04,VALID,917.877,VALID,0,VALID,83.3468,VALID,283.43,VALID,23.5821,VALID,290,VALID,0,
2016-11-15, 16:02:04,VALID,917.869,VALID,0,VALID,87.2652,VALID,290.306,VALID,23.2875,VALID,255,VALID,0,
2016-11-15, 16:03:04,VALID,917.881,VALID,0,VALID,93.5088,VALID,297.182,VALID,23.1509,VALID,63,VALID,0,
2016-11-15, 16:04:04,VALID,917.858,VALID,0,VALID,104,VALID,307.282,VALID,23.2112,VALID,65,VALID,0,
2016-11-15, 16:05:04,VALID,917.867,VALID,0,INVALID,109.411,VALID,301.587,VALID,23.3478,VALID,64,VALID,0,
2016-11-15, 16:06:04,VALID,917.853,VALID,0,VALID,96.238,VALID,286.438,VALID,23.4437,VALID,10,VALID,0,
2016-11-15, 16:07:04,VALID,917.855,VALID,0,VALID,93.7223,VALID,280.207,VALID,23.543,VALID,343,VALID,0.615234,
2016-11-15, 16:08:04,VALID,917.879,VALID,0,VALID,89.4303,VALID,475.857,VALID,23.4437,VALID,300,VALID,0.185156,
2016-11-15, 16:09:04,VALID,917.875,VALID,0,VALID,102.177,VALID,770.783,VALID,23.5022,VALID,348,VALID,0,
2016-11-15, 16:10:04,VALID,917.886,VALID,0,VALID,85.1841,VALID,457.807,VALID,23.5412,VALID,266,VALID,0.320703,
2016-11-15, 16:11:04,VALID,917.88,VALID,0,VALID,84.5056,VALID,724.798,VALID,23.5217,VALID,321,VALID,0,
2016-11-15, 16:12:04,VALID,917.873,VALID,0,VALID,86.8993,VALID,894.77,VALID,23.6992,VALID,329,VALID,0,
2016-11-15, 16:13:04,VALID,917.851,VALID,0,VALID,87.0594,VALID,558.909,VALID,24.0097,VALID,282,VALID,0,
2016-11-15, 16:14:04,VALID,917.865,VALID,0,VALID,85.5652,VALID,536.776,VALID,24.1659,VALID,318,VALID,0,
2016-11-15, 16:15:04,VALID,917.863,VALID,0,VALID,82.7674,VALID,446.74,VALID,24.2226,VALID,277,VALID,0.0675781,
2016-11-15, 16:16:04,VALID,917.846,VALID,0,VALID,85.2984,VALID,389.259,VALID,24.125,VALID,310,VALID,0,
2016-11-15, 16:17:04,VALID,917.867,VALID,0,VALID,83.545,VALID,700.624,VALID,24.0488,VALID,249,VALID,0,
2016-11-15, 16:18:04,VALID,917.862,VALID,0,VALID,91.5039,VALID,734.79,VALID,24.2245,VALID,337,VALID,0,
2016-11-15, 16:19:04,VALID,917.846,VALID,0,VALID,82.4244,VALID,556.115,VALID,24.3788,VALID,242,VALID,0,
2016-11-15, 16:20:04,VALID,917.824,VALID,0,VALID,78.8719,VALID,535.702,VALID,24.4764,VALID,281,VALID,0,
2016-11-15, 16:21:04,VALID,917.837,VALID,0,VALID,80.8235,VALID,624.233,VALID,24.3007,VALID,315,VALID,0,
2016-11-15, 16:22:04,VALID,917.841,VALID,0,VALID,81.6163,VALID,401.937,VALID,24.2812,VALID,262,VALID,0,
2016-11-15, 16:23:04,VALID,917.822,VALID,0,VALID,80.8158,VALID,499.279,VALID,24.2031,VALID,244,VALID,0.586328,
2016-11-15, 16:24:04,VALID,917.844,VALID,0,VALID,83.7356,VALID,669.036,VALID,23.9884,VALID,266,VALID,0,
2016-11-15, 16:25:04,VALID,917.84,VALID,0,VALID,84.3074,VALID,529.148,VALID,24.0079,VALID,257,VALID,0,
2016-11-15, 16:26:04,VALID,917.844,VALID,0,VALID,82.6607,VALID,926.358,VALID,23.9085,VALID,250,VALID,1.06211,
2016-11-15, 16:27:04,VALID,917.875,VALID,0,VALID,84.4446,VALID,891.654,VALID,23.9707,VALID,340,VALID,0.89375,
2016-11-15, 16:28:04,VALID,917.91,VALID,0,VALID,82.6226,VALID,901.646,VALID,23.9689,VALID,286,VALID,1.27773,
2016-11-15, 16:29:04,VALID,917.906,VALID,0,VALID,85.1231,VALID,940.862,VALID,24.0469,VALID,6,VALID,0.287891,
2016-11-15, 16:30:04,VALID,917.94,VALID,0,VALID,85.1764,VALID,855.769,VALID,24.3788,VALID,6,VALID,1.87578,
2016-11-15, 16:31:04,VALID,917.915,VALID,0,VALID,80.5338,VALID,395.598,VALID,24.4374,VALID,36,VALID,1.50039,
2016-11-15, 16:32:04,VALID,917.958,VALID,0,VALID,82.775,VALID,383.78,VALID,24.3007,VALID,358,VALID,0.896875,
2016-11-15, 16:33:04,VALID,917.929,VALID,0,VALID,83.4612,VALID,422.781,VALID,24.2421,VALID,252,VALID,0.664063,
2016-11-15, 16:34:04,VALID,917.913,VALID,0,VALID,84.5284,VALID,726.195,VALID,24.2989,VALID,97,VALID,0.220703,
2016-11-15, 16:35:04,VALID,917.918,VALID,0,VALID,83.3087,VALID,374.218,VALID,24.4355,VALID,23,VALID,0,
2016-11-15, 16:36:04,VALID,917.936,VALID,0,VALID,82.8284,VALID,504.436,VALID,24.4569,VALID,288,VALID,0,
2016-11-15, 16:37:04,VALID,917.919,VALID,0,VALID,83.4078,VALID,607.687,VALID,24.6521,VALID,303,VALID,0,
2016-11-15, 16:38:04,VALID,917.905,VALID,0,VALID,80.8844,VALID,632.721,VALID,24.8864,VALID,14,VALID,0.953516,
2016-11-15, 16:39:04,VALID,917.914,VALID,0,VALID,81.0064,VALID,557.082,VALID,25.0212,VALID,9,VALID,0.689844,
2016-11-15, 16:40:04,VALID,917.892,VALID,0,VALID,78.4373,VALID,779.915,VALID,25.316,VALID,312,VALID,0.196484,
2016-11-15, 16:41:04,VALID,917.897,VALID,0,VALID,79.4741,VALID,395.169,VALID,25.5679,VALID,16,VALID,0.628125,
2016-11-15, 16:42:04,VALID,917.905,VALID,0,VALID,76.1046,VALID,412.789,VALID,25.5484,VALID,37,VALID,1.84844,
2016-11-15, 16:43:04,VALID,917.906,VALID,0,VALID,78.1934,VALID,378.945,VALID,25.3941,VALID,109,VALID,0.191016,
2016-11-15, 16:44:04,VALID,917.93,VALID,0,VALID,79.0624,VALID,390.978,VALID,25.3531,VALID,46,VALID,0,
2016-11-15, 16:45:04,VALID,917.929,VALID,0,VALID,79.7333,VALID,423.533,VALID,25.3941,VALID,22,VALID,0,
2016-11-15, 16:46:04,VALID,917.918,VALID,0,VALID,80.1526,VALID,432.343,VALID,25.236,VALID,280,VALID,0,
2016-11-15, 16:47:04,VALID,917.924,VALID,0,VALID,80.2288,VALID,418.806,VALID,25.1383,INVALID,360,VALID,0,
2016-11-15, 16:48:04,VALID,917.94,VALID,0,VALID,78.6279,VALID,429.442,VALID,25.0193,VALID,335,VALID,0,
2016-11-15, 16:49:04,VALID,917.924,VALID,0,VALID,77.9418,VALID,374.97,VALID,25.0407,VALID,313,VALID,0,
2016-11-15, 16:50:04,VALID,917.882,VALID,0,VALID,77.3319,VALID,352.192,VALID,24.8845,VALID,250,VALID,0,
2016-11-15, 16:51:04,VALID,917.863,VALID,0,VALID,81.3114,VALID,344.241,VALID,24.8278,VALID,353,VALID,0,
2016-11-15, 16:52:04,VALID,917.866,VALID,0,VALID,80.1374,VALID,341.233,VALID,24.7693,VALID,26,VALID,1.27695,
2016-11-15, 16:53:04,VALID,917.822,VALID,0,VALID,80.4728,VALID,345.423,VALID,24.7693,VALID,6,VALID,0,
2016-11-15, 16:54:04,VALID,917.851,VALID,0,VALID,80.7853,VALID,358.746,VALID,24.8259,VALID,13,VALID,0,
2016-11-15, 16:55:04,VALID,917.811,VALID,0,VALID,79.7486,VALID,386.466,VALID,24.9821,VALID,23,VALID,0,
2016-11-15, 16:56:04,VALID,917.836,VALID,0,VALID,78.5136,VALID,405.913,VALID,25.0407,VALID,358,VALID,0,
2016-11-15, 16:57:04,VALID,917.804,VALID,0,VALID,80.2669,VALID,404.409,VALID,24.8259,VALID,29,VALID,0,
2016-11-15, 16:58:04,VALID,917.807,VALID,0,VALID,81.4638,VALID,392.805,VALID,24.7869,VALID,29,VALID,0,
2016-11-15, 16:59:04,VALID,917.817,VALID,0,VALID,79.7104,VALID,392.053,VALID,24.8083,VALID,330,VALID,0,
2016-11-15, 17:00:04,VALID,917.779,VALID,0,VALID,81.7916,VALID,383.78,VALID,24.7674,VALID,47,VALID,0,
2016-11-15, 17:01:04,VALID,917.803,VALID,0,VALID,80.9454,VALID,357.134,VALID,24.7888,VALID,345,VALID,0,
2016-11-15, 17:02:04,VALID,917.825,VALID,0,VALID,81.3723,VALID,324.365,VALID,24.7674,VALID,45,VALID,0,
2016-11-15, 17:03:04,VALID,917.795,VALID,0,VALID,80.2898,VALID,306.53,VALID,24.8259,VALID,45,VALID,0,
2016-11-15, 17:04:04,VALID,917.815,VALID,0,VALID,79.1158,VALID,295.571,VALID,24.8259,VALID,63,VALID,0,
2016-11-15, 17:05:04,VALID,917.819,VALID,0,VALID,81.4714,VALID,292.885,VALID,24.7479,VALID,44,VALID,0,
2016-11-15, 17:06:04,VALID,917.821,VALID,0,VALID,80.4118,VALID,285.149,VALID,24.7869,VALID,44,VALID,0,
2016-11-15, 17:07:04,VALID,917.766,VALID,0,VALID,78.7575,VALID,272.256,VALID,24.7283,VALID,44,VALID,0,
2016-11-15, 17:08:04,VALID,917.775,VALID,0,VALID,79.7104,VALID,254.313,VALID,24.7107,VALID,44,VALID,0,
2016-11-15, 17:09:04,VALID,917.772,VALID,0,VALID,80.2212,VALID,229.817,VALID,24.7107,VALID,358,VALID,0,
2016-11-15, 17:10:04,VALID,917.77,VALID,0,VALID,81.1131,VALID,202.849,VALID,24.6698,VALID,358,VALID,0,
2016-11-15, 17:11:04,VALID,917.769,VALID,0,VALID,80.3508,VALID,183.187,VALID,24.6112,VALID,87,VALID,0,
2016-11-15, 17:12:04,VALID,917.727,VALID,0,VALID,81.7459,VALID,170.724,VALID,24.5526,VALID,356,VALID,0,
2016-11-15, 17:13:04,VALID,917.726,VALID,0,VALID,82.5159,VALID,163.633,VALID,24.5155,VALID,356,VALID,0,
2016-11-15, 17:14:04,VALID,917.767,VALID,0,VALID,82.4701,VALID,158.046,VALID,24.416,VALID,27,VALID,0,
2016-11-15, 17:15:04,VALID,917.722,VALID,0,VALID,82.1652,VALID,156.542,VALID,24.2598,VALID,319,VALID,0.0632813,
2016-11-15, 17:16:04,VALID,917.756,VALID,0,VALID,84.1778,VALID,160.839,VALID,24.125,VALID,8,VALID,0,
2016-11-15, 17:17:04,VALID,917.718,VALID,0,VALID,83.9338,VALID,173.517,VALID,23.9884,VALID,15,VALID,0.0148437,
2016-11-15, 17:18:04,VALID,917.732,VALID,0,VALID,85.1917,VALID,184.369,VALID,23.8713,VALID,9,VALID,0,
2016-11-15, 17:19:04,VALID,917.77,VALID,0,VALID,86.2361,VALID,196.94,VALID,23.8322,VALID,36,VALID,0,
2016-11-15, 17:20:04,VALID,917.729,VALID,0,VALID,87.0518,VALID,212.948,VALID,23.8517,VALID,20,VALID,0,
2016-11-15, 17:21:04,VALID,917.759,VALID,0,VALID,88.3935,VALID,228.742,VALID,23.8517,VALID,360,VALID,0,
2016-11-15, 17:22:04,VALID,917.737,VALID,0,VALID,85.9311,VALID,242.495,VALID,23.8091,VALID,22,VALID,0,
2016-11-15, 17:23:04,VALID,917.743,VALID,0,VALID,86.8383,VALID,254.528,VALID,23.8499,VALID,6,VALID,0,
2016-11-15, 17:24:04,VALID,917.741,VALID,0,VALID,85.489,VALID,271.934,VALID,23.9475,VALID,6,VALID,0,
2016-11-15, 17:25:04,VALID,917.73,VALID,0,VALID,82.6607,VALID,303.521,VALID,24.0061,VALID,306,VALID,0,
2016-11-15, 17:26:04,VALID,917.726,VALID,0,VALID,84.4751,VALID,319.1,VALID,24.1445,VALID,306,VALID,0,
2016-11-15, 17:27:04,VALID,917.691,VALID,0,VALID,83.1791,VALID,313.621,VALID,24.2793,VALID,346,VALID,0,
2016-11-15, 17:28:04,VALID,917.693,VALID,0,VALID,82.5845,VALID,324.902,VALID,24.4355,VALID,352,VALID,0,
2016-11-15, 17:29:04,VALID,917.716,VALID,0,VALID,81.5553,VALID,331.993,VALID,24.4941,VALID,351,VALID,0,
2016-11-15, 17:30:04,VALID,917.669,VALID,0,VALID,81.662,VALID,352.3,VALID,24.4569,VALID,23,VALID,0,
2016-11-15, 17:31:04,VALID,917.68,VALID,0,VALID,83.667,VALID,372.176,VALID,24.455,VALID,9,VALID,0,
2016-11-15, 17:32:04,VALID,917.635,VALID,0,VALID,83.0495,VALID,370.887,VALID,24.5545,VALID,13,VALID,0,
2016-11-15, 17:33:04,VALID,917.642,VALID,0,VALID,84.0558,VALID,381.524,VALID,24.5722,VALID,9,VALID,0,
2016-11-15, 17:34:04,VALID,917.634,VALID,0,VALID,81.4562,VALID,405.053,VALID,24.6112,VALID,334,VALID,0.394531,
2016-11-15, 17:35:04,VALID,917.647,VALID,0,VALID,82.5845,VALID,443.625,VALID,24.455,VALID,327,VALID,0,
2016-11-15, 17:36:04,VALID,917.665,VALID,0,VALID,84.4827,VALID,520.66,VALID,24.4178,VALID,64,VALID,0,
2016-11-15, 17:37:04,VALID,917.657,VALID,0,VALID,83.2782,VALID,458.774,VALID,24.416,VALID,42,VALID,0,
2016-11-15, 17:38:04,VALID,917.673,VALID,0,VALID,83.9719,VALID,452.972,VALID,24.416,VALID,286,VALID,0,
2016-11-15, 17:39:04,VALID,917.675,VALID,0,VALID,83.1486,VALID,424.07,VALID,24.4745,VALID,302,VALID,0,
2016-11-15, 17:40:04,VALID,917.709,VALID,0,VALID,83.8347,VALID,430.302,VALID,24.6131,VALID,49,VALID,0,
2016-11-15, 17:41:04,VALID,917.73,VALID,0,VALID,81.3647,VALID,461.89,VALID,24.6307,VALID,268,VALID,0,
2016-11-15, 17:42:04,VALID,917.682,VALID,0,VALID,82.3024,VALID,476.179,VALID,24.4941,VALID,289,VALID,0,
2016-11-15, 17:43:04,VALID,917.711,VALID,0,VALID,81.7306,VALID,473.493,VALID,24.4355,VALID,66,VALID,0.122266,
2016-11-15, 17:44:04,VALID,917.704,VALID,0,VALID,82.5768,VALID,464.038,VALID,24.416,VALID,285,VALID,0,
2016-11-15, 17:45:04,VALID,917.689,VALID,0,VALID,82.1194,VALID,441.368,VALID,24.4178,VALID,346,VALID,0,
2016-11-15, 17:46:04,VALID,917.723,VALID,0,VALID,82.5159,VALID,418.806,VALID,24.4745,VALID,359,VALID,0,
2016-11-15, 17:47:04,VALID,917.701,VALID,0,VALID,82.4549,VALID,418.913,VALID,24.6112,VALID,18,VALID,0.575391,
2016-11-15, 17:48:04,VALID,917.661,VALID,0,VALID,81.3495,VALID,419.343,VALID,24.7088,VALID,348,VALID,0.128906,
2016-11-15, 17:49:04,VALID,917.703,VALID,0,VALID,80.5414,VALID,454.369,VALID,24.6112,VALID,314,VALID,0,
2016-11-15, 17:50:04,VALID,917.672,VALID,0,VALID,82.1194,VALID,426.756,VALID,24.455,VALID,15,VALID,0,
2016-11-15, 17:51:04,VALID,917.678,VALID,0,VALID,81.8526,VALID,412.681,VALID,24.1427,VALID,336,VALID,0.957812,
2016-11-15, 17:52:04,VALID,917.641,VALID,0,VALID,85.2069,VALID,447.707,VALID,24.0842,VALID,1,VALID,0,
2016-11-15, 17:53:04,VALID,917.641,VALID,0,VALID,83.6746,VALID,477.898,VALID,24.2013,VALID,29,VALID,0,
2016-11-15, 17:54:04,VALID,917.641,VALID,0,VALID,83.5984,VALID,511.098,VALID,24.455,VALID,338,VALID,0,
2016-11-15, 17:55:04,VALID,917.649,VALID,0,VALID,80.6481,VALID,539.14,VALID,24.6093,VALID,41,VALID,0,
2016-11-15, 17:56:04,VALID,917.615,VALID,0,VALID,80.6481,VALID,554.289,VALID,24.8455,VALID,318,VALID,0,
2016-11-15, 17:57:04,VALID,917.644,VALID,0,VALID,80.1221,VALID,524.85,VALID,24.8631,VALID,241,VALID,0,
2016-11-15, 17:58:04,VALID,917.644,VALID,0,VALID,80.7015,VALID,500.031,VALID,24.8845,VALID,272,VALID,0,
2016-11-15, 17:59:04,VALID,917.602,VALID,0,VALID,81.5629,VALID,485.741,VALID,24.8631,VALID,302,VALID,0,
2016-11-15, 18:00:04,VALID,917.62,VALID,0,VALID,79.0548,VALID,460.923,VALID,24.9607,VALID,281,VALID,0,
2016-11-15, 18:01:04,VALID,917.602,VALID,0,VALID,79.7486,VALID,445.773,VALID,24.5703,VALID,284,VALID,0.540625,
2016-11-15, 18:02:04,VALID,917.619,VALID,0,VALID,81.6773,VALID,435.137,VALID,24.3379,VALID,289,VALID,0,
2016-11-15, 18:03:04,VALID,917.605,VALID,0,VALID,82.188,VALID,448.782,VALID,24.3769,VALID,305,VALID,0,
2016-11-15, 18:04:04,VALID,917.607,VALID,0,VALID,82.1957,VALID,476.716,VALID,24.3751,VALID,328,VALID,0,
2016-11-15, 18:05:04,VALID,917.593,VALID,0,VALID,82.6683,VALID,494.659,VALID,24.3593,VALID,338,VALID,0,
2016-11-15, 18:06:04,VALID,917.606,VALID,0,VALID,81.5934,VALID,521.412,VALID,24.125,VALID,275,VALID,0.244141,
2016-11-15, 18:07:04,VALID,917.565,VALID,0,VALID,81.8069,VALID,455.336,VALID,24.0274,VALID,251,VALID,1.31914,
2016-11-15, 18:08:04,VALID,917.554,VALID,0,VALID,83.9948,VALID,418.913,VALID,23.9493,VALID,245,VALID,0.10625,
2016-11-15, 18:09:04,VALID,917.563,VALID,0,VALID,85.55,VALID,414.508,VALID,23.967,VALID,279,VALID,0.300391,
2016-11-15, 18:10:04,VALID,917.554,VALID,0,VALID,83.6822,VALID,411.715,VALID,23.9689,VALID,259,VALID,1.56797,
2016-11-15, 18:11:04,VALID,917.529,VALID,0,VALID,83.606,VALID,416.334,VALID,23.7719,VALID,254,VALID,1.23086,
2016-11-15, 18:12:04,VALID,917.531,VALID,0,VALID,86.5486,VALID,402.689,VALID,23.6938,VALID,270,VALID,0.929297,
2016-11-15, 18:13:04,VALID,917.517,VALID,0,VALID,86.0455,VALID,375.507,VALID,23.7133,VALID,316,VALID,0.804688,
2016-11-15, 18:14:04,VALID,917.49,VALID,0,VALID,86.076,VALID,352.622,VALID,23.8109,VALID,249,VALID,0.847266,
2016-11-15, 18:15:04,VALID,917.466,VALID,0,VALID,86.1675,VALID,353.267,VALID,23.9847,VALID,255,VALID,0.849609,
2016-11-15, 18:16:04,VALID,917.473,VALID,0,VALID,83.8728,VALID,357.886,VALID,23.967,VALID,241,VALID,1.53008,
2016-11-15, 18:17:04,VALID,917.466,VALID,0,VALID,84.6428,VALID,357.242,VALID,23.7701,VALID,251,VALID,1.02969,
2016-11-15, 18:18:04,VALID,917.45,VALID,0,VALID,86.6249,VALID,350.473,VALID,23.7328,VALID,244,VALID,0,
2016-11-15, 18:19:04,VALID,917.419,VALID,0,VALID,86.7926,VALID,340.266,VALID,23.7523,VALID,231,VALID,0,
2016-11-15, 18:20:04,VALID,917.403,VALID,0,VALID,85.4661,VALID,327.373,VALID,23.8463,VALID,259,VALID,0,
2016-11-15, 18:21:04,VALID,917.384,VALID,0,VALID,83.5984,VALID,311.687,VALID,23.9847,VALID,243,VALID,0,
2016-11-15, 18:22:04,VALID,917.374,VALID,0,VALID,84.1701,VALID,299.761,VALID,23.8676,VALID,264,VALID,0,
2016-11-15, 18:23:04,VALID,917.336,VALID,0,VALID,84.7953,VALID,288.694,VALID,23.7115,VALID,223,VALID,0,
2016-11-15, 18:24:04,VALID,917.342,VALID,0,VALID,87.9056,VALID,281.818,VALID,23.8109,VALID,10,VALID,0,
2016-11-15, 18:25:04,VALID,917.274,VALID,0,VALID,84.3379,VALID,286.546,VALID,23.8694,VALID,236,VALID,0.855078,
2016-11-15, 18:26:04,VALID,917.28,VALID,0,VALID,91.9536,VALID,292.562,VALID,23.8091,VALID,264,VALID,0,
2016-11-15, 18:27:04,VALID,917.232,VALID,0,VALID,90.2917,VALID,306.744,VALID,23.9085,VALID,340,VALID,0,